Location: Chiroubles
(46.1812°N, 4.6660°E)
Time: 02:05:00
(UTC+00:00)

Spot 2 Rocket - Pass Details

Date: 15 August 2020
Orbit: 756 x 773 km, 98.6° (Epoch: 19 September)

Event Time Altitude Azimuth Distance (km) Brightness Sun altitude
Exits shadow 20:51:17 28° 170° (S) 1,432 4.5 -18.4°
Maximum altitude 20:54:05 82° 255° (WSW) 783 3.5 -18.8°
Drops below altitude 10° 20:59:12 10° 344° (NNW) 2,317 6.9 -19.4°
Sets 21:01:31 0° 346° (NNW) 3,245 7.8 -19.7°
